Flag for Brazil Weather past 2 weeks in Pelotas, Rio Grande do Sul, Brazil

Now
68 °F

Clear.


Feels Like: 68 °F
Forecast: N/A
Wind: 8 mph from Southeast

Location: Pelotas Airport


UV Index: N/A

Visibility: 10 mi


Pressure: 30.12 "Hg

Humidity: 53%

Dew point: 50 °F

Location of PelotasLocation

Historic Weather in Pelotas

°F

Pelotas temperature yesterday

Maximum temperature yesterday: 70 °F (at 2:00 PM)
Minimum temperature yesterday: 55 °F (at 9:00 PM)
Average temperature yesterday: 62 °F

Past Weeks' High & Low Weather Summary

 TemperatureHumidityPressure
High84 °F (Apr 17, 1:00 PM)100% (Apr 11, 1:00 PM)30.21 "Hg (Apr 11, 1:00 PM)
Low50 °F (Apr 15, 6:00 AM)27% (Apr 8, 4:00 PM)29.47 "Hg (Apr 12, 6:00 AM)
Average66 °F82%29.99 "Hg
* Reported Apr 8 4:00 PM — Apr 23 4:00 PM, Pelotas, Weather by CustomWeather, © 2014

Note: Actual official high and low records may vary slightly from our data, if they occured in-between our weather recording intervals... More about our weather records

Advertising

Historic Weather Conditions — Data for Previous 24 hours

 ConditionsComfort  
Time TempWeatherWind HumidityBarometerVisibility
4:00 PM
Apr 23
70 °FPassing clouds.8 mph50%30.12 "HgN/A
3:00 PM72 °FScattered clouds.9 mph50%30.12 "HgN/A
2:00 PM68 °FScattered clouds.3 mph56%30.12 "HgN/A
1:00 PM70 °FScattered clouds.6 mph50%30.15 "HgN/A
12:00 PM68 °FPassing clouds.5 mph56%30.15 "HgN/A
11:00 AM66 °FPassing clouds.5 mph64%30.18 "HgN/A
10:00 AM63 °FSunny.5 mph73%30.18 "Hg10 mi
9:00 AM57 °FSunny.5 mph82%30.18 "Hg10 mi
8:00 AM54 °FSunny.3 mph88%30.18 "Hg10 mi
7:00 AM50 °FSunny.3 mph94%30.15 "Hg10 mi
6:00 AM50 °FSunny.5 mph94%30.15 "Hg10 mi
5:00 AM50 °FClear.2 mph94%30.12 "Hg10 mi
4:00 AM52 °FClear.5 mph94%30.12 "Hg10 mi
3:00 AM54 °FPassing clouds.3 mph88%30.15 "HgN/A
2:00 AM54 °FPassing clouds.3 mph88%30.15 "HgN/A
1:00 AM54 °FClear.3 mph94%30.15 "Hg10 mi
12:00 AM55 °FClear.2 mph88%30.12 "Hg10 mi
11:00 PM
Apr 22
55 °FPassing clouds.5 mph88%30.15 "HgN/A
10:00 PM55 °FClear.No wind88%30.12 "Hg10 mi
9:00 PM55 °FClear.No wind88%30.12 "Hg10 mi
8:00 PM57 °FClear.1 mph82%30.12 "Hg10 mi
7:00 PM59 °FClear.5 mph77%30.12 "Hg10 mi
6:00 PM63 °FPassing clouds.3 mph64%30.12 "HgN/A
5:00 PM66 °FPassing clouds.7 mph56%30.12 "HgN/A
Weather by CustomWeather, © 2014

See weather overview